OBJECT AG, 59128

Orbit data source: Space-Track

You're viewing an Uncataloged Satellite

Recently launched and/or uncataloged satellites may have evolving metadata. Metadata may include but not limited to: Owner, Maufacturer, Bus, Motor, and Mission.

OBJECT AG, 59128 is a satellite in SSO that was launched on Mon, 04 Mar 2024 UTC via an FALCON 9 launch vehicle from the Air Force Western Test Range (AFWTR). Unknown objects in Earth's orbit typically refer to objects detected orbiting the Earth but have not yet been identified or cataloged. These objects could be anything from previously untracked satellites, spent rocket stages, debris from satellite collisions, or even natural meteoroids temporarily captured by Earth's gravity.

Loading next visibility...
Identifier
59128, 2024-043AG
Orbit
SSO
Country
Flag of TBDTBD
Related business
None
Manufacturer
OrbAstro
Mission
Operational Commercial Sigint
Bus & Motor
CUBESAT 6U, Unknown motor
Mass
~10 kg wet, ~10 kg dry
Launch date (UTC)
2024-03-04 (1 year ago)
Launch vehicle
FALCON 9
Launch site
Air Force Western Test Range (AFWTR)
Object type
Unknown
Shape & HBR
Box + 2 Pan, 1.5 m
Radar Cross Section
0.969 m², Large (>1 m²)

Expand to show TLE details & history
Last TLE update: 14 hours ago

TLE from 14 hours ago
0 OBJECT AG
1 59128U 24043AG  25241.90419975  .00009076  00000-0  34438-3 0  9993
2 59128  97.5269  11.2273 0010861 183.5129 176.6035 15.27031087 82581
Epoch: 2025-08-29T21:42Z
TLE epoch observation values (Epoch: 2025-08-29T21:42:02.858Z)
Latitude
-0.00004°
Longitude
67.36924°
Altitude
495.232 km
Speed
7.613 km/s
True Right ascension
00h 44m 54s
True Declination
0° 00' 00"
Sunlit
Object was in full shadow at epoch
Visualization orbit readout
Latitude
Unknown
Longitude
Unknown
Altitude
Unknown
Speed
Unknown
Apparent Right ascension
Unknown
Apparent Declination
Unknown
Sunlit
N/A
Visualization observer readout
Local Sidereal Time
02:57:59
Azimuth
Unknown
Elevation
Unknown
Doppler factor
Unknown
Orbital elements
Apogee altitude
489.105 km
Perigee altitude
474.204 km
Semi-major axis
6,859.792 km
Eccentricity
0.00109
Inclination
97.5269°
RAAN
11.2273°
Arg. of periapsis
183.5129°
True anomaly
176.61086°
Mean anomaly
176.6035°
Eccentric anomaly
176.60718°
Mean motion
3.82012 °/min
Orbital period
94.24 mins
BSTAR
0.00034438
Loading maneuver chart data...
Computing Atmospheric mass density...
Loading historical data...
Loading historical data...
Loading historical data...
Loading historical data...
Loading historical data...
Loading historical data...
Loading historical data...

Documentation

Showing up to 5 results
|